STARLINK-11319, 61251

Orbit data source: Space-Track

STARLINK-11319, 61251 is a payload satellite owned by SpaceX/Seattle (US) in LEO that was launched on Wed, 25 Sep 2024 UTC via an FALCON 9 launch vehicle from the Air Force Western Test Range (AFWTR). Payload-class satellites include a variety of spacecraft equipped with specific instruments for various scientific and technological missions. These include communications satellites like Starlink; space stations such as the ISS; scientific satellites like the Hubble; Earth observation satellites from companies like Planet Labs, Umbra, and HawkEye 360; GPS; miniature CubeSats for education and research; and military/defense satellites.

Loading next visibility...
Identifier
61251, 2024-175J
Orbit
LEO
Last TLE update
11 hours ago
Origin
Manufacturer
SpaceX/Seattle
Mission
Operational Commercial Communications
Bus & Motor
STARLINK V2M, Unknown motor
Mass
730 kg wet, ~700 kg dry
Launch date (UTC)
2024-09-25 (10 months ago)
Launch vehicle
FALCON 9
Launch site
Air Force Western Test Range (AFWTR)
Object type
Payload
Rocket body
Debris
Shape & HBR
Box + 2 Pan, 14.5 m
Radar Cross Section
36.964 m², Large (>1 m²)

Expand to show TLE details & history

TLE from 11 hours ago
0 STARLINK-11319
1 61251U 24175J   25199.52245032 -.00000626  00000-0 -31005-6 0  9994
2 61251  53.1590 130.9356 0001153  95.4199 264.6951 15.69693574 46585
Epoch: 2025-07-18T12:32Z
TLE epoch observation values (Epoch: 2025-07-18T12:32:19.707Z)
Latitude
0.00001°
Longitude
6.2808°
Altitude
360.761 km
Speed
7.694 km/s
True Right ascension
08h 43m 44s
True Declination
0° 00' 00"
Sunlit
Object was in daylight at epoch
Visualization orbit readout
Latitude
53.28077°
Longitude
96.80162°
Altitude
365.548 km
Speed
7.697 km/s
Apparent Right ascension
20h 42m 51s
Apparent Declination
24° 55' 02"
Sunlit
Object is in daylight
Visualization observer readout
Local Sidereal Time
12:25:04
Azimuth
48.908° ENE
Elevation
-7.07°
Doppler factor
1
Orbital elements
Apogee altitude
360.812 km
Perigee altitude
359.258 km
Semi-major axis
6,738.172 km
Eccentricity
0.00012
Inclination
53.159°
RAAN
130.9356°
Arg. of periapsis
95.4199°
True anomaly
264.68194°
Mean anomaly
264.6951°
Eccentric anomaly
264.68852°
Mean motion
3.92401 °/min
Orbital period
91.74 mins
BSTAR
-3.1005e-7
Loading maneuver chart data...
Loading SW <> Apogee altitude chart data...
Loading historical data...
Loading historical data...
Loading historical data...
Loading historical data...
Loading historical data...
Loading historical data...
Loading historical data...
|